Location: Newark
(45.2500°N, 7.5833°E)
Time: 00:28:07
(UTC+00:00)

N. Korean satellite - Pass Details

Date: 22 December 2019
Orbit: 454 x 507 km, 97.2° (Epoch: 21 January)

Event Time Altitude Azimuth Distance (km) Brightness Sun altitude
Rises 06:08:40 0° 0° (N) 2,505 9.9 -9.7°
Reaches altitude 10° 06:10:57 10° 347° (NNW) 1,617 8.9 -9.3°
Maximum altitude 06:13:49 25° 291° (WNW) 970 7.5 -8.9°
Drops below altitude 10° 06:16:40 10° 234° (SW) 1,593 8.9 -8.4°
Sets 06:18:54 0° 221° (SW) 2,459 10.0 -8.1°
